Flag for Germany Weather past 2 weeks in Gerolstein, Rhineland-Palatinate, Germany

Now
58 °F

Scattered clouds.


Feels Like: 59 °F
Forecast: 45 / 62 °F
Wind: 3 mph from North

Location: Nuerburg-Barweiler


UV Index: 3 (Moderate)

Visibility: 38 mi


Pressure: 29.61 "Hg

Humidity: 55%

Dew point: 42 °F

Location of GerolsteinLocation

Historic Weather in Gerolstein

°F

Gerolstein temperature yesterday

Maximum temperature yesterday: 60 °F (at 4:00 PM)
Minimum temperature yesterday: 48 °F (at 4:00 AM)
Average temperature yesterday: 54 °F

Past Weeks' High & Low Weather Summary

 TemperatureHumidityPressure
High65 °F (Apr 7, 6:00 PM)97% (Apr 18, 6:00 AM)30.46 "Hg (Apr 18, 6:00 AM)
Low31 °F (Apr 16, 7:00 AM)28% (Apr 17, 6:00 PM)29.63 "Hg (Apr 21, 11:00 AM)
Average48 °F71%30.08 "Hg
* Reported Apr 6 12:00 Noon — Apr 21 11:00 AM, Gerolstein, Weather by CustomWeather, © 2014

Note: Actual official high and low records may vary slightly from our data, if they occured in-between our weather recording intervals... More about our weather records

Advertising

Historic Weather Conditions — Data for Previous 24 hours

 ConditionsComfort  
Time TempWeatherWind HumidityBarometerVisibility
11:00 AM
Apr 21
58 °FScattered clouds.2 mph57%29.63 "Hg37 mi
10:00 AM55 °FScattered clouds.2 mph63%29.65 "Hg37 mi
9:00 AM48 °FPassing clouds.1 mph78%29.68 "Hg37 mi
8:00 AM46 °FPassing clouds.1 mph78%29.69 "Hg37 mi
7:00 AM45 °FScattered clouds.1 mph80%29.69 "Hg31 mi
6:00 AM47 °FPassing clouds.2 mph75%29.69 "Hg31 mi
4:00 AM48 °FClear.5 mph71%29.70 "Hg37 mi
3:00 AM49 °FClear.5 mph70%29.71 "Hg37 mi
2:00 AM51 °FOvercast.5 mph66%29.71 "Hg34 mi
1:00 AM51 °FOvercast.2 mph67%29.72 "Hg34 mi
12:00 AM52 °FClear.3 mph64%29.72 "Hg31 mi
11:00 PM
Apr 20
52 °FPassing clouds.3 mph63%29.72 "Hg28 mi
10:00 PM54 °FPassing clouds.3 mph60%29.71 "Hg25 mi
9:00 PMN/APassing clouds.7 mphN/AN/A1 mi
8:00 PM58 °FSprinkles. Overcast.3 mph56%29.67 "Hg16 mi
7:00 PM59 °FPartly sunny.5 mph52%29.66 "Hg25 mi
6:00 PM60 °FOvercast.5 mph46%29.66 "Hg19 mi
4:00 PM60 °FOvercast.7 mph54%29.67 "Hg22 mi
3:00 PM59 °FOvercast.7 mph55%29.68 "Hg22 mi
2:00 PM59 °FOvercast.6 mph59%29.69 "Hg19 mi
1:00 PM58 °FPartly sunny.7 mph66%29.70 "Hg17 mi
12:00 PM57 °FPartly sunny.8 mph67%29.71 "Hg16 mi
Weather by CustomWeather, © 2014

See weather overview